Location: Melizzano
(41.1500°N, 14.5000°E)
Time: 09:07:42
(UTC+00:00)

Cosmos 1151 Rocket - Pass Details

Date: 11 May 2021
Orbit: 592 x 616 km, 82.5° (Epoch: 15 June)

Event Time Altitude Azimuth Distance (km) Brightness Sun altitude
Exits shadow 19:56:20 10° 197° (SSW) 1,965 5.4 -17.3°
Reaches altitude 10° 19:56:21 10° 197° (SSW) 1,959 5.4 -17.3°
Maximum altitude 20:00:39 63° 279° (W) 685 3.4 -17.9°
Drops below altitude 10° 20:05:01 10° 1° (N) 1,984 6.3 -18.4°
Sets 20:07:17 0° 5° (N) 2,896 7.1 -18.7°
